TimeHST,TemperatureF,Dew PointF,Humidity,Sea Level PressureIn,VisibilityMPH,Wind Direction,Wind SpeedMPH,Gust SpeedMPH,PrecipitationIn,Events,Conditions,WindDirDegrees,DateUTC
12:53 AM,71.1,59.0,66,30.05,10.0,NNE,5.8,-,N/A,,Clear,30,2012-12-14 10:53:00
1:53 AM,71.1,57.0,61,30.04,10.0,ESE,6.9,-,N/A,,Clear,120,2012-12-14 11:53:00
2:53 AM,70.0,57.9,65,30.03,10.0,East,5.8,-,N/A,,Clear,100,2012-12-14 12:53:00
3:53 AM,69.1,55.9,63,30.03,10.0,East,3.5,-,N/A,,Clear,90,2012-12-14 13:53:00
4:53 AM,70.0,57.0,63,30.02,10.0,East,4.6,-,N/A,,Clear,100,2012-12-14 14:53:00
5:53 AM,69.1,57.9,68,30.04,10.0,ESE,10.4,-,N/A,,Clear,120,2012-12-14 15:53:00
6:53 AM,71.1,61.0,70,30.04,10.0,SE,8.1,-,N/A,,Clear,130,2012-12-14 16:53:00
7:53 AM,73.0,57.0,57,30.06,10.0,SE,4.6,-,N/A,,Clear,130,2012-12-14 17:53:00
8:53 AM,77.0,64.0,64,30.08,10.0,SE,6.9,-,N/A,,Clear,140,2012-12-14 18:53:00
9:53 AM,78.1,64.0,62,30.09,10.0,SSW,9.2,-,N/A,,Clear,210,2012-12-14 19:53:00
10:53 AM,79.0,64.0,60,30.08,10.0,SSW,8.1,-,N/A,,Clear,210,2012-12-14 20:53:00
11:53 AM,81.0,64.9,58,30.07,10.0,SW,8.1,-,N/A,,Clear,230,2012-12-14 21:53:00
12:53 PM,80.1,64.9,60,30.05,10.0,WSW,6.9,-,N/A,,Clear,240,2012-12-14 22:53:00
1:53 PM,81.0,64.9,58,30.03,10.0,WSW,8.1,-,N/A,,Clear,240,2012-12-14 23:53:00
2:53 PM,80.1,64.9,60,30.01,10.0,SW,8.1,-,N/A,,Clear,230,2012-12-15 00:53:00
3:53 PM,80.1,64.0,58,30.01,10.0,WSW,8.1,-,N/A,,Partly Cloudy,240,2012-12-15 01:53:00
4:53 PM,79.0,64.0,60,30.02,10.0,SW,5.8,-,N/A,,Mostly Cloudy,230,2012-12-15 02:53:00
5:53 PM,78.1,64.0,62,30.03,10.0,West,3.5,-,N/A,,Clear,280,2012-12-15 03:53:00
6:53 PM,77.0,64.0,64,30.04,10.0,Calm,Calm,-,N/A,,Clear,0,2012-12-15 04:53:00
7:53 PM,77.0,64.0,64,30.05,10.0,SE,3.5,-,N/A,,Clear,140,2012-12-15 05:53:00
8:53 PM,73.9,63.0,68,30.06,10.0,SE,4.6,-,N/A,,Clear,130,2012-12-15 06:53:00
9:53 PM,73.9,63.0,68,30.06,10.0,SE,5.8,-,N/A,,Clear,130,2012-12-15 07:53:00
10:53 PM,73.0,62.1,68,30.06,10.0,ENE,4.6,-,N/A,,Clear,70,2012-12-15 08:53:00
11:53 PM,73.0,62.1,68,30.06,10.0,NE,4.6,-,N/A,,Clear,50,2012-12-15 09:53:00